星链-11328 (STARLINK-11328)

导读

STARLINK-11328是美国SpaceX公司于2024年11月9日发射的第二代星链星座卫星,运行在近地轨道,属于SpaceX全球卫星互联网组网的重要组成部分。它配备增强型相控阵天线与激光星间链路,可提供百Gbps以上通信容量,支持低延迟高速宽带接入,服务全球偏远地区通信、移动联网及应急场景,设计寿命5-7年,退役后会主动再入大气层烧毁,降低空间碎片风险。

基本信息
目录编号:
61880
目录名称:
STARLINK-11328
国际标识:
2024-204G
轨道中心:
EARTH
卫星名称:
星链-11328
卫星全名:
星链-11328 (STARLINK-11328)
卫星状态:
在轨 (已飞行582 天)
发射日期:
2024-11-09 UTC
国别 :
美国 (US)
星等 :
--
轨道信息
数据来源 国际轨道数据
星历时间: 2026-06-13T20:15:31+0800
23小时前
查看轨道信息
半长轴: 6737.904km
偏心率: 0.0001431
轨道倾角: 53.158°
近地点辐角 56.392°
升交点赤经 243.957°
平近点角 303.724°
近地点: 358.802km
远地点: 360.732km
周期: 91.738分钟
每日圈数: 15.69696
详细信息
固有亮度:
5
最大亮度:
2.5
卫星平台:
Starlink V1.0
覆盖范围:
全球
运营商:
太空探索技术公司
运营商所在国:
美国
制造商(研发单位):
太空探索技术公司
制造商所在国:
美国
使用方式:
暂无
卫星简介
Starlink 计划是 SpaceX 推出的全球卫星互联网项目,通过发射低轨道卫星,为全球尤其是偏远地区提供高速、低延迟的互联网服务。自 2019 年起,Starlink 已部署数千颗卫星,旨在缩小全球数字鸿沟,推动互联网普及。该项目还为军事、航空等行业提供通信支持,带来广泛经济效益。
2D轨道图
3D轨道图
轨道高度分析图
轨道倾角分析图
轨道综合分析图
查看轨道综合分析图